Weather in Novgorodka

Russia / Amur Oblast     51°14′00″N   128°06′33″E
temp.,
°C
wind,
m/s
gust,
m/s
humid.,
%
clouds,
%
prec.,
mm/h
press.,
hPa
HPBL,
m
6 may, thu
thu600:00+5sse118940 0.3 99514
03:00+5n119495 0.3 99510
06:00+5nne249299 0.1 997155
09:00+6nne3388100 0.3 999477
12:00+6n248399 0.4 1000420
15:00+11nw2357100 0.4 9991350
18:00+10nw346342 0.2 1001959
21:00+6nw248156 0.2 100265
7 may, fri
fri700:00+5nw22815 0.0 100214
03:00+5wsw127999 0.0 100237
06:00+5wsw118494 0.0 100219
09:00+10nne3453100 0.0 10011116
12:00+11ne345099 0.1 10001379
15:00+12ne5647100 0.1 9971615
18:00+11nne5850100 0.0 9971275
21:00+9nne61256100 0.0 997728
8 may, sat
sat800:00+6nne61357100 0.0 997528
03:00+4n61265100 0.0 997561
06:00+3n71161100 0.0 997703
09:00+5n71051100 0.0 997929
12:00+9n784295 0.0 9971513
15:00+11n783795 0.0 9962124
18:00+8nne6954100 0.0 9981462
21:00+5n5106897 0.0 999820
9 may, sun
sun900:00+3n61067100 0.0 1000603
03:00+1n5980100 0.0 1000584
06:00+1n5977100 0.1 1000593
09:00+2n5785100 0.3 1001696
12:00+7n5652100 0.1 10011430
15:00+8nnw4650100 0.1 10011653
18:00+9nnw4658100 0.1 10021249
21:00+6nnw377299 0.1 1003193
10 may, mon
mon1000:00+6nnw4871100 0.0 1004389
03:00+3nnw378297 0.0 1006204
06:00+3nnw3676100 0.0 1007268
09:00+7nnw3357100 0.0 1008696
12:00+11ne2252100 0.0 10081429
15:00+10ene226197 0.1 10091138
18:00+11nne125569 0.0 10101233
21:00+8ne226999 0.0 101142